This is the latest recevied weather packets stored in our database for station/object SQ7RAF-15. If no packets are shown the sender has not sent any weather packets the latest 10 day(s).
| Time | Temp. | Humidity | Pressure | Rain* | Wind** | Luminosity | Snow |
|---|---|---|---|---|---|---|---|
| 1777565722 | 12.78° C | 46% | 1027.8 hPa | 0 mm | - | 71 W/m² | - |
| 1777565434 | 13.33° C | 45% | 1027.9 hPa | 0 mm | - | 78 W/m² | - |
| 1777565130 | 13.33° C | 44% | 1027.8 hPa | 0 mm | - | 88 W/m² | - |
| 1777564842 | 13.33° C | 44% | 1027.9 hPa | 0 mm | - | 99 W/m² | - |
| 1777564522 | 13.33° C | 44% | 1028 hPa | 0 mm | - | 135 W/m² | - |
| 1777564234 | 13.33° C | 44% | 1028 hPa | 0 mm | - | 132 W/m² | - |
| 1777563930 | 13.89° C | 43% | 1028 hPa | 0 mm | - | 142 W/m² | - |
| 1777563633 | 13.89° C | 44% | 1028.2 hPa | 0 mm | - | 170 W/m² | - |
| 1777563322 | 13.89° C | 43% | 1028 hPa | 0 mm | - | 119 W/m² | - |
| 1777563039 | 13.89° C | 43% | 1028.1 hPa | 0 mm | - | 136 W/m² | - |
| 1777562746 | 13.33° C | 44% | 1028.1 hPa | 0 mm | - | 136 W/m² | - |
| 1777562426 | 13.89° C | 43% | 1028.1 hPa | 0 mm | - | 136 W/m² | - |
| 1777562138 | 13.33° C | 44% | 1028.2 hPa | 0 mm | - | 134 W/m² | - |
| 1777561834 | 13.33° C | 43% | 1028.1 hPa | 0 mm | - | 153 W/m² | - |
| 1777561532 | 13.89° C | 43% | 1028.2 hPa | 0 mm | - | 149 W/m² | - |
| 1777561241 | 13.33° C | 43% | 1028.2 hPa | 0 mm | - | 149 W/m² | - |
| 1777560922 | 13.33° C | 43% | 1028.3 hPa | 0 mm | - | 98 W/m² | - |
| 1777560618 | 13.89° C | 42% | 1028.3 hPa | 0 mm | - | 144 W/m² | - |
| 1777560336 | 13.89° C | 42% | 1028.4 hPa | 0 mm | - | 151 W/m² | - |
| 1777560042 | 14.44° C | 41% | 1028.2 hPa | 0 mm | - | 277 W/m² | - |
| 1777559733 | 14.44° C | 40% | 1028.5 hPa | 0 mm | - | 248 W/m² | - |
| 1777559439 | 14.44° C | 41% | 1028.5 hPa | 0 mm | - | 379 W/m² | - |
| 1777559129 | 13.89° C | 42% | 1028.5 hPa | 0 mm | - | 366 W/m² | - |
| 1777558833 | 13.89° C | 42% | 1028.6 hPa | 0 mm | - | 300 W/m² | - |
| 1777558522 | 13.89° C | 42% | 1028.6 hPa | 0 mm | - | 333 W/m² | - |
* Rain latest hour (hover to see other rain measurements)
** Current wind speed in m/s (hover to see current wind gust speed)